Regional Weather Roundup
Issued by NWS Newport/Morehead, NC

Current Version | Previous Version | Graphics & Text | Print | Product List | Glossary Off
Versions: 1 2 3 4 5 6 7 8 9 10 11 12 13 14 15 16 17 18 19 20 21 22 23 24 25 26 27 28 29 30 31 32 33 34 35 36 37 38 39 40 41 42 43 44 45 46 47 48 49 50

000
ASUS42 KMHX 261313
RWRMHX
WEATHER ROUNDUP FOR EASTERN NORTH CAROLINA
NATIONAL WEATHER SERVICE NEWPORT/MOREHEAD CITY NC
900 AM EDT TUE JUL 26 2016

NOTE: "FAIR" INDICATES FEW OR NO CLOUDS BELOW 12,000 FEET
WITH NO SIGNIFICANT WEATHER AND/OR OBSTRUCTIONS TO VISIBILITY

NCZ015>017-031-032-045>047-102-103-261400-
NORTH COAST

CITY           SKY/WX    TMP DP  RH WIND       PRES   REMARKS
EDENTON        SUNNY     84  72  67 W9        30.00S
ELIZABETH CITY SUNNY     83  74  74 W12       29.98R
KITTY HAWK     SUNNY     85  73  67 W12G18    29.98R
MANTEO           N/A     83  75  76 W13       29.99S

$$

NCZ045>047-081-094-103-104-261400-
CENTRAL COAST

CITY           SKY/WX    TMP DP  RH WIND       PRES   REMARKS
FRISCO         SUNNY     82  75  79 W13       30.02S

$$

NCZ095-097-098-100-101-261400-
SOUTHERN COAST

CITY           SKY/WX    TMP DP  RH WIND       PRES   REMARKS
BEAUFORT       MOSUNNY   83  75  77 W14       30.04S
CEDAR ISLAND   NOT AVBL
JACKSONVILLE   MOSUNNY   82  73  74 W10G16    30.03F
PINEY ISLAND   NOT AVBL
WILMINGTON     MOSUNNY   82  73  74 SW12      30.05F


$$

NCZ011>013-027>030-043-044-078>080-089-090>093-098-261400-
COASTAL PLAIN

CITY           SKY/WX    TMP DP  RH WIND       PRES   REMARKS
AHOSKIE        SUNNY     81  75  81 CALM      29.99R
CLINTON        MOSUNNY   82  75  81 W9        30.04S
ELIZABETHTOWN  MOSUNNY   80  74  80 W6        30.05R
GOLDSBORO      NOT AVBL
GREENVILLE     PTSUNNY   81  75  83 W6        30.03R
HAVELOCK       MOSUNNY   83  74  74 W14       30.04F
KENANSVILLE    NOT AVBL
KINSTON        MOSUNNY   84  73  70 SW10      30.03S
NEW BERN       MOSUNNY   81  73  76 W9        30.04S
RICHLANDS      MOSUNNY   82  75  79 SW9       30.05S
ROCKY MOUNT    SUNNY    N/A N/A N/A MISG      30.01S
WASHINGTON     NOT AVBL
WHITEVILLE     MOSUNNY   81  74  77 SW7       30.05S

$$

AMZ130-135-150-152-154-156-158-170-250-252-270-ANZ085-086-088-633-658-670-261400-
MARINE OBSERVATIONS

STATION/POSITION TIME  TEMP    WIND        PRES    WAVE   SWELL
                       AIR SEA DIR/SP/G            HT/PER HT/PER
                 (UTC) (F)     (DEG/KT/KT) (MB)    (FT/S) (FT/S)
CHESAPEAKE LIGHT NOT AVBL
64 E VA BEACH    1250   81 81  250/ 16/ 19 1014.1    4/ 6
DUCK             1200   81 61  240/ 16/ 20 1014.5
2 E DUCK         1211      64                N/A     1/ 8
OREGON INLET     1200   81 85  230/ 15/ 18 1015.4
13E OREGON INLT  1300      81                N/A     3/ 6   2/14
HATTERAS CG      1200   81 83  230/ 10/ 13 1016.2
DIAMOND BUOY     1250   83 84  250/ 17/ 21 1016.6    4/ 5
CAPE LOOKOUT     1300   83     260/ 16/ 21 1017.0
BEAUFORT LAB     1200   81 83  250/  8/ 15 1016.7
30 SE NEW RVR IN 1208   83 85  260/ 14/ 19 1017.6
30 SE NEW RVR IN 1225      84                N/A     4/ 5
27 SE WRIGHTSVLE 1208   84 84  250/ 14/ 17 1017.9
5 SE WRIGHTSVLE  1208   81 81  260/  8/ 12 1018.6
225 S CAPE HAT   1250   84 84  210/ 12/ 14 1019.2    2/ 8   2/ 8
41 SE CHARLESTON 1250   85 85  240/ 10/ 12 1017.5    2/ 4   2/ 8

$$



USA.gov is the U.S. government's official web portal to all federal, state and local government web resources and services.